Volver al catálogo

STARLINK-4530

ActivoComunicacionesVLEO
NORAD 53393·PAYLOAD·🇺🇸 United States

Lanzado Aug 10, 2022 desde Cape Canaveral Space Force Station

Loading…

Próximos Pases (próximas 24 horas)

TLE

ActualizadoSource: CelesTrak SupGP

Época: Sep 14, 2026, 22:19 UTC

1 53393C 22097F   26257.93034722 -.00035346  00000+0 -10116-2 0  2575
2 53393  53.1592 347.5266 0001177  87.6725 195.4153 15.35405206    14

Sigue STARLINK-4530 en tiempo real con AllMySat

Download on the App Store